DW1011 Weather Reports


Display with metric or nautical units.
time (UTC)temp
F
wind
direction
speed
MPH
gust
MPH
rain 1hr
in
rain 24hr
in
rain mn
in
humidity
%
barometer
mb
20260504194552 69 360 3.0 22.0 0.00 0.51 0.00 26 1009.5
20260504193051 69 0 0.0 0.0 0.00 0.51 0.00 26 1009.5
20260504191555 70 0 0.0 0.0 0.00 0.51 0.00 23 1009.6
20260504190054 69 360 16.0 22.0 0.00 0.51 0.00 25 1009.8
20260504184558 70 360 11.0 17.0 0.00 0.56 0.00 24 1009.9
20260504183059 68 360 12.0 18.0 0.00 0.56 0.00 25 1010.1
20260504181556 68 360 10.0 19.0 0.00 0.56 0.00 25 1010.3
20260504180050 67 360 9.0 19.0 0.00 0.56 0.00 26 1010.6
20260504174554 67 360 7.0 18.0 0.00 0.58 0.00 28 1011.1
20260504173050 66 209 7.0 20.0 0.00 0.58 0.00 28 1011.3
20260504171557 65 360 9.0 20.0 0.00 0.58 0.00 29 1011.4
20260504081552 57 360 0.0 0.0 0.00 0.58 0.00 29 1012.5
20260504044558 0 0.0 0.0 0.00 0.58 0.58 1013.4
20260504043100 0 0.0 0.0 0.00 0.58 0.58 1013.0
20260504041554 0 0.0 0.0 0.00 0.58 0.58 1013.0
20260504040057 0 0.0 0.0 0.00 0.58 0.58 1013.2
20260504034554 0 0.0 0.0 0.00 0.58 0.58 1013.3
20260504033056 0 0.0 0.0 0.00 0.58 0.58 1013.4
20260504031602 0 0.0 0.0 0.00 0.58 0.58 1013.3
20260504030056 0 0.0 0.0 0.00 0.58 0.58 1013.3
20260504024549 0 0.0 0.0 0.00 0.58 0.58 1013.3
20260504023049 0 0.0 0.0 0.00 0.58 0.58 1013.1
20260504021548 0 0.0 0.0 0.00 0.58 0.58 1013.0
20260504020126 0 0.0 0.0 0.00 0.58 0.58 1012.9
20260504014603 0 0.0 0.0 0.00 0.58 0.58 1012.9
20260504013103 66 0.0 0.0 0.00 0.58 0.58 22 1012.7
20260504011549 67 0 0.0 0.0 0.00 0.58 0.58 22 1012.8
20260504010053 67 0 0.0 0.0 0.00 0.58 0.58 23 1013.0
20260504004619 67 0 0.0 0.0 0.00 0.58 0.58 23 1013.4
20260504003051 67 0 0.0 0.0 0.00 0.58 0.58 22 1013.4
20260504001618 69 0 0.0 0.0 0.00 0.58 0.58 21 1013.5
20260504000056 68 0 0.0 0.0 0.00 0.58 0.58 22 1013.6
20260503234558 68 0 0.0 0.0 0.00 0.58 0.58 22 1013.5
20260503233055 67 0 0.0 0.0 0.00 0.58 0.58 23 1013.8
20260503231553 69 0 0.0 0.0 0.00 0.58 0.58 20 1013.5
20260503230110 71 0 0.0 0.0 0.00 0.58 0.58 19 1013.4
20260503224556 71 0 0.0 0.0 0.00 0.58 0.58 19 1013.4
20260503223056 68 0 0.0 0.0 0.00 0.58 0.58 21 1013.7
20260503221604 69 0 0.0 0.0 0.00 0.58 0.58 19 1013.8
20260503220053 70 0 0.0 0.0 0.00 0.58 0.58 19 1014.1
20260503214600 69 0 0.0 0.0 0.00 0.58 0.58 21 1014.2
20260503213056 70 0 0.0 0.0 0.00 0.58 0.58 18 1014.1
20260503211553 70 0 0.0 0.0 0.21 0.58 0.58 16 1014.1
20260503204552 71 0 0.0 0.0 0.22 0.58 0.58 15 1014.5
20260503203108 72 0 0.0 0.0 0.22 0.58 0.58 14 1014.6
20260503201554 72 0 0.0 0.0 0.30 0.37 0.37 15 1014.8
20260503200053 71 0 0.0 0.0 0.30 0.37 0.37 15 1014.9